Weather History for Hoquiam, WA

Change the Weather History Date:

Saturday, August 30, 2014

  Actual Average Record
Temperature  
Mean Temperature 63 °F 61 °F  
Max Temperature 68 °F 68 °F 83 °F (1968)
Min Temperature 57 °F 53 °F 43 °F (1972)
Degree Days  
Heating Degree Days 2 4  
Month to date heating degree days 76 120  
Since 1 June heating degree days 395 530  
Cooling Degree Days 0 0  
Month to date cooling degree days 7 0  
Year to date cooling degree days 30 9  
Since 1 June cooling degree days 15 8  
Growing Degree Days 12 (Base 50)    
Moisture  
Dew Point 60 °F    
Average Humidity 91    
Maximum Humidity 100    
Minimum Humidity 81    
Precipitation  
Precipitation 1.25 in 0.06 in 1.82 in (1991)
Month to date precipitation 1.99 1.24  
Year to date precipitation 43.65 37.54  
Sea Level Pressure  
Sea Level Pressure 29.93 in    
Wind  
Wind Speed 8 mph (NW)    
Max Wind Speed 20 mph    
Max Gust Speed 24 mph    
Visibility 5 miles    
Events Rain    
T = Trace of Precipitation, MM = Missing Value Source: NWS Daily Summary

Daily Weather History Graph

Daily Weather History Graph

Search for Another Location

Airport:

Trip Planner

Search our weather history database for the weather conditions in past years. The results will help you decide how hot, cold, wet, or windy it might be!

Date:

Astronomy

Aug. 30, 2014 Rise Set
Actual Time 6:32 AM PDT 7:58 PM PDT
Civil Twilight 6:00 AM PDT 8:30 PM PDT
Nautical Twilight 5:22 AM PDT 9:08 PM PDT
Astronomical Twilight 4:41 AM PDT 9:49 PM PDT
Moon 11:46 AM PDT 10:14 PM PDT
Length of Visible Light 14h 29m
Length of Day
13h 26m
Waxing Crescent, 24% of the Moon is Illuminated
Aug 30
Waxing Crescent
Sep 2
First Quarter
Sep 8
Full
Sep 15
Last Quarter
Sep 23
New

Hourly Weather History & Observations

Time (PDT) Temp. Dew Point Humidity Pressure Visibility Wind Dir Wind Speed Gust Speed Precip Events Conditions
12:25 AM 62.1 °F 60.1 °F 93% 29.96 in 9.0 mi South 5.8 mph - N/A   Overcast
12:53 AM 62.6 °F 60.8 °F 94% 29.95 in 9.0 mi Calm Calm - N/A   Overcast
1:02 AM 62.1 °F 60.1 °F 93% 29.95 in 9.0 mi Calm Calm - N/A   Overcast
1:17 AM 62.1 °F 60.1 °F 93% 29.95 in 9.0 mi Calm Calm - N/A   Overcast
1:26 AM 62.1 °F 60.1 °F 93% 29.95 in 9.0 mi Calm Calm - N/A   Overcast
1:53 AM 62.1 °F 60.1 °F 93% 29.96 in 9.0 mi Calm Calm - N/A   Overcast
2:53 AM 62.1 °F 61.0 °F 96% 29.95 in 5.0 mi South 3.5 mph - 0.04 in Rain Light Rain
3:05 AM 61.0 °F 60.1 °F 97% 29.94 in 2.5 mi SSW 8.1 mph - 0.01 in Rain Light Rain
3:23 AM 60.1 °F 60.1 °F 100% 29.93 in 2.5 mi SW 4.6 mph - 0.04 in Rain Light Rain
3:41 AM 60.1 °F 60.1 °F 100% 29.92 in 3.0 mi Calm Calm - 0.06 in Rain Light Rain
3:53 AM 60.1 °F 60.1 °F 100% 29.94 in 5.0 mi Calm Calm - 0.06 in Rain Light Rain
4:09 AM 60.1 °F 59.0 °F 96% 29.92 in 4.0 mi North 3.5 mph - 0.01 in Rain Light Rain
4:27 AM 60.8 °F 60.8 °F 100% 29.92 in 6.0 mi NNE 3.5 mph - N/A Rain Light Rain
4:34 AM 61.0 °F 60.1 °F 97% 29.91 in 8.0 mi Calm Calm - 0.01 in   Overcast
4:44 AM 60.1 °F 60.1 °F 100% 29.91 in 2.5 mi ENE 3.5 mph - 0.04 in Rain Rain
4:53 AM 60.1 °F 60.1 °F 100% 29.92 in 1.8 mi ENE 5.8 mph - 0.10 in Rain Rain
4:58 AM 60.1 °F 60.1 °F 100% 29.91 in 2.0 mi ENE 6.9 mph - 0.03 in Rain Rain
5:06 AM 60.1 °F 60.1 °F 100% 29.91 in 1.5 mi ESE 6.9 mph - 0.10 in Rain Heavy Rain
5:14 AM 61.0 °F 60.1 °F 97% 29.90 in 2.0 mi ENE 6.9 mph - 0.13 in Rain Rain
5:21 AM 60.1 °F 60.1 °F 100% 29.90 in 2.5 mi ENE 5.8 mph - 0.13 in Rain Light Rain
5:40 AM 61.0 °F 60.1 °F 97% 29.90 in 4.0 mi NE 4.6 mph - 0.16 in Rain Light Rain
5:49 AM 60.8 °F 60.8 °F 100% 29.90 in 5.0 mi ENE 5.8 mph - 0.17 in Rain Light Rain
5:53 AM 61.0 °F 60.1 °F 97% 29.91 in 4.0 mi ENE 5.8 mph - 0.18 in Rain Rain
6:13 AM 60.1 °F 60.1 °F 100% 29.89 in 2.5 mi ENE 6.9 mph - 0.06 in Rain Rain
6:33 AM 60.1 °F 60.1 °F 100% 29.89 in 1.5 mi ENE 6.9 mph - 0.15 in Rain Heavy Rain
6:51 AM 59.0 °F 59.0 °F 100% 29.89 in 2.0 mi East 6.9 mph - 0.21 in Rain Light Rain
6:53 AM 59.0 °F 59.0 °F 100% 29.91 in 2.5 mi ENE 6.9 mph - 0.21 in Rain Light Rain
7:02 AM 60.1 °F 59.0 °F 96% 29.89 in 2.0 mi ENE 8.1 mph - 0.03 in Rain Rain
7:04 AM 59.0 °F 59.0 °F 100% 29.89 in 1.8 mi ENE 6.9 mph - 0.04 in Rain Rain
7:28 AM 60.1 °F 59.0 °F 96% 29.89 in 0.8 mi NE 8.1 mph - 0.24 in Rain Rain
7:37 AM 60.1 °F 59.0 °F 96% 29.88 in 1.2 mi NE 8.1 mph - 0.26 in Rain Light Rain
7:53 AM 60.1 °F 59.0 °F 96% 29.89 in 1.5 mi NE 8.1 mph - 0.29 in Rain Light Rain
8:14 AM 60.1 °F 59.0 °F 96% 29.88 in 1.2 mi ENE 6.9 mph - 0.04 in Rain Light Rain
8:53 AM 60.1 °F 59.0 °F 96% 29.89 in 1.2 mi ENE 9.2 mph - 0.12 in Rain Light Rain
9:17 AM 60.1 °F 59.0 °F 96% 29.88 in 1.0 mi NNE 8.1 mph - 0.09 in Rain Rain
9:20 AM 60.1 °F 59.0 °F 96% 29.88 in 0.8 mi NNE 6.9 mph - 0.10 in Rain Light Rain
9:27 AM 60.1 °F 59.0 °F 96% 29.88 in 1.0 mi North 8.1 mph - 0.11 in Rain Light Rain
9:53 AM 60.1 °F 60.1 °F 100% 29.89 in 0.8 mi North 5.8 mph - 0.18 in Rain Light Rain
10:12 AM 61.0 °F 60.1 °F 97% 29.88 in 1.0 mi North 5.8 mph - 0.04 in Rain Light Rain
10:35 AM 61.0 °F 60.1 °F 97% 29.89 in 1.5 mi North 9.2 mph - 0.06 in Rain Light Rain
10:53 AM 61.0 °F 60.1 °F 97% 29.91 in 1.5 mi North 8.1 mph - 0.06 in Rain Light Rain
11:26 AM 62.1 °F 60.1 °F 93% 29.89 in 2.0 mi North 5.8 mph - 0.01 in Rain Light Rain
11:34 AM 62.1 °F 61.0 °F 96% 29.89 in 8.0 mi NE 4.6 mph - 0.01 in   Overcast
11:51 AM 62.6 °F 60.8 °F 94% 29.89 in 9.0 mi Calm Calm - 0.01 in   Overcast
11:53 AM 63.0 °F 61.0 °F 93% 29.91 in 9.0 mi Calm Calm - 0.01 in   Overcast
12:01 PM 63.0 °F 60.1 °F 90% 29.90 in 9.0 mi WNW 6.9 mph - N/A   Overcast
12:26 PM 64.0 °F 60.1 °F 87% 29.90 in 9.0 mi West 10.4 mph - N/A   Overcast
12:53 PM 64.0 °F 61.0 °F 90% 29.91 in 9.0 mi West 11.5 mph - N/A   Overcast
1:12 PM 64.9 °F 61.0 °F 87% 29.91 in 7.0 mi West 9.2 mph - 0.00 in Rain Light Rain
1:53 PM 66.0 °F 60.1 °F 81% 29.93 in 9.0 mi WSW 17.3 mph - 0.00 in   Overcast
2:18 PM 64.9 °F 60.1 °F 84% 29.93 in 8.0 mi WSW 17.3 mph - N/A   Mostly Cloudy
2:37 PM 64.9 °F 60.1 °F 84% 29.94 in 8.0 mi WSW 11.5 mph - N/A   Mostly Cloudy
2:53 PM 66.0 °F 60.1 °F 81% 29.95 in 8.0 mi WSW 13.8 mph - N/A   Mostly Cloudy
3:14 PM 66.0 °F 60.1 °F 81% 29.94 in 8.0 mi SW 16.1 mph - N/A   Scattered Clouds
3:53 PM 63.0 °F 60.1 °F 90% 29.96 in 7.0 mi SSW 16.1 mph - N/A   Partly Cloudy
4:53 PM 64.0 °F 60.1 °F 87% 29.97 in 7.0 mi SW 13.8 mph - N/A   Scattered Clouds
5:09 PM 63.0 °F 60.1 °F 90% 29.95 in 7.0 mi SW 13.8 mph - N/A   Mostly Cloudy
5:19 PM 63.0 °F 60.1 °F 90% 29.96 in 7.0 mi SW 12.7 mph - N/A   Scattered Clouds
5:27 PM 64.0 °F 60.1 °F 87% 29.96 in 7.0 mi SSW 13.8 mph - N/A   Mostly Cloudy
5:53 PM 66.0 °F 60.1 °F 81% 29.97 in 7.0 mi WSW 12.7 mph - N/A   Mostly Cloudy
6:02 PM 64.9 °F 60.1 °F 84% 29.96 in 7.0 mi WSW 12.7 mph - N/A   Mostly Cloudy
6:09 PM 66.0 °F 60.1 °F 81% 29.95 in 7.0 mi WSW 11.5 mph - N/A   Scattered Clouds
6:53 PM 64.0 °F 59.0 °F 84% 29.97 in 7.0 mi WSW 12.7 mph - N/A   Clear
7:53 PM 62.6 °F 59.0 °F 88% 29.97 in 7.0 mi West 9.2 mph - N/A   Mostly Cloudy
8:02 PM 63.0 °F 59.0 °F 87% 29.97 in 7.0 mi West 9.2 mph - N/A   Scattered Clouds
8:53 PM 62.1 °F 59.0 °F 90% 29.99 in 8.0 mi West 3.5 mph - N/A   Partly Cloudy
9:53 PM 60.1 °F 57.9 °F 93% 30.01 in 7.0 mi WSW 4.6 mph - N/A   Clear
10:53 PM 60.1 °F 57.9 °F 93% 30.01 in 7.0 mi WSW 4.6 mph - N/A   Partly Cloudy
11:16 PM 60.1 °F 57.9 °F 93% 30.00 in 6.0 mi SW 5.8 mph - N/A   Scattered Clouds
11:25 PM 60.1 °F 59.0 °F 96% 30.01 in 7.0 mi WSW 4.6 mph - N/A   Mostly Cloudy
11:53 PM 59.0 °F 57.9 °F 96% 30.02 in 6.0 mi West 3.5 mph - N/A   Overcast